Flag for Canada Weather past 2 weeks in Prince Rupert, British Columbia, Canada

Now
43 °F

Passing clouds.


Feels Like: 39 °F
Forecast: 42 / 52 °F
Wind: 6 mph from East

Location: Prince Rupert

Current Time: Oct 2, 2014 at 9:31:02 AM

Latest Report: Oct 2, 2014 at 8:00 AM


Visibility: 9 mi

Pressure: 30.19 "Hg

Humidity: 100%

Dew point: 43 °F

Location of Prince RupertLocation

Historic Weather in Prince Rupert — Graph

°F

Prince Rupert temperature yesterday

Maximum temperature yesterday: 55 °F (at 2:00 PM)
Minimum temperature yesterday: 45 °F (at 10:00 PM)
Average temperature yesterday: 50 °F

Past Weeks' High & Low Weather Summary

 TemperatureHumidityPressure
High68 °F (Sep 21, 12:00 PM)100% (Sep 17, 8:00 AM)30.23 "Hg (Sep 17, 8:00 AM)
Low41 °F (Oct 2, 4:00 AM)46% (Sep 21, 3:00 PM)29.43 "Hg (Sep 18, 5:00 PM)
Average55 °F89%29.80 "Hg
* Reported Sep 17 8:00 AM — Oct 2 8:00 AM, Prince Rupert, Weather by CustomWeather, © 2014

Note: Actual official high and low records may vary slightly from our data, if they occured in-between our weather recording intervals... More about our weather records

Advertising

Prince Rupert weather history for previous 24 hours

 ConditionsComfort  
Time TempWeatherWind HumidityBarometerVisibility
8:00 AM
Oct 2
43 °FPassing clouds.6 mph100%30.19 "Hg9 mi
7:00 AM43 °FOvercast.7 mph93%30.21 "Hg9 mi
6:00 AM43 °FPassing clouds.7 mph93%30.21 "Hg9 mi
4:00 AM41 °FClear.2 mph100%30.22 "Hg9 mi
3:00 AM43 °FClear.9 mph100%30.22 "Hg9 mi
2:00 AM43 °FClear.6 mph100%30.23 "Hg9 mi
1:00 AM45 °FPassing clouds.7 mph93%30.22 "Hg9 mi
12:00 AM43 °FPassing clouds.7 mph100%30.22 "Hg9 mi
11:00 PM
Oct 1
45 °FClear.7 mph93%30.23 "Hg9 mi
10:00 PM45 °FClear.7 mph93%30.21 "Hg9 mi
9:00 PM46 °FClear.6 mph93%30.22 "Hg9 mi
8:00 PM46 °FSunny.2 mph93%30.21 "Hg9 mi
6:00 PM54 °FSunny.3 mph67%30.18 "Hg9 mi
5:00 PM54 °FSunny.5 mph67%30.18 "Hg9 mi
4:00 PM55 °FSunny.5 mph59%30.18 "Hg9 mi
3:00 PM55 °FSunny.5 mph63%30.17 "Hg9 mi
2:00 PM55 °FPartly sunny.5 mph59%30.17 "Hg9 mi
1:00 PM52 °FScattered clouds.8 mph82%30.16 "Hg9 mi
12:00 PM54 °FScattered clouds.5 mph72%30.16 "Hg9 mi
11:00 AM52 °FBroken clouds.8 mph82%30.15 "Hg9 mi
10:00 AM50 °FSunny.7 mph88%30.14 "Hg9 mi
9:00 AM46 °FSunny.5 mph93%30.13 "Hg9 mi
Weather by CustomWeather, © 2014

See weather overviewHow to use our weather pages